Tracking 26544 objects as of 9-Dec-2022
HD Live streaming from Space Station
objects crossing your sky now

FLOCK 4P 10

Track FLOCK 4P 10 now!
10-day predictions
FLOCK 4P 10 is classified as:


NORAD ID: 44808
Int'l Code: 2019-081E
Perigee: 460.5 km
Apogee: 472.8 km
Inclination: 97.4 °
Period: 93.8 minutes
Semi major axis: 6837 km
RCS: Unknown
Launch date: November 27, 2019
Source: United States (US)
Launch site: SRIHARIKOTA (SRI)
aabbcc
Your satellite tracking list
Your tracking list is empty




NASA's NSSDC Master Catalog

Two Line Element Set (TLE):
1 44808U 19081E   22342.65107259  .00048901  00000-0  14118-2 0  9990
2 44808  97.3798  46.8472 0008979 325.6734  34.3928 15.35477876168549
Source of the keplerian elements: AFSPC